STARLINK-4371 (53232 NORAD) Tracking and Keplerian Element Data

This shows tracking and keplerian element data for the satellite.

Feedback or suggestion? Click here.




ElementValue
Catalog53232
NameSTARLINK-4371
Epoch Orbit1034
Epoch Day270.12343852
Epoch Year2022
RAAN329.9595
Inclination97.6552
Eccentricity0.0001634
Argument of Perigee91.9763
Mean Anonmoly268.1648
Mean Motion15.01256771
Decay Rate-1.513E-05
L11 53232U 22084AV 22270.12343852 -.00001513 00000+0 -11323-3 0 9996
L22 53232 97.6552 329.9595 0001634 91.9763 268.1648 15.01256771 10340

Live tracking and technical data element details for STARLINK-4371 (NORAD 53232). STARLINK-4371 can be tracked NOW for your location showing map with azimuth and elevation plus other details from your city location.

Track the satellite on the map from your city or location and see movement details for azimuth, elevation, latitude, longitude, range, height, and movement on the map or in text.







IsCatalogInMostPopularTable: catalog: 53232, numindb: 8
Update: records affected: 1



GetName: 53232 STARLINK-4371

Hit Count: updated at: Wed, 05 Oct 2022 08:36:12 GMT